Content
SEND FEEDBACK

Daily
Averages
Monthly
Summary
United States of America

SOUTH LAKE TAHOE, CALIFORNIA


Home > North America > United States > California
Elevation: 1908 meters     Latitude: 38 53N     Longitude: 119 59W

WEATHER
 
SELECT A DAY
Number of Records: 174,306;   Date Range: 1/1/95 - 7/20/14
 
SHARE

PRINT THIS DATA

[ ← Previous Day ]
WEATHER ALMANAC - 7 JANUARY, 2013
[ Next Day → ]
[ °F ]   °C
Weather ElementAverageHighLow
Temperature-3.6 °C5.6 °C (1:53 pm)-11.1 °C (5:53 am)
Dewpoint-6.2 °C-1.7 °C (4:53 pm)-13.9 °C (5:53 am)
Humidity83.1 %93 % (6:05 pm)53 % (1:53 pm)
Barometer1024.4 hPa1028.1 hPa (7:53 pm)1021 hPa (2:20 am)
Wind Speed2.1 km/h9.3 km/h (7:53 am)
Weather ElementAverage
Visibility7.1 km
Wind DirectionENE (53.1 °)

Weather ElementTotal
Precipitation---
Heating Degree Days21.1 (Base 18.3)
Averaged from 62 records on 7 January, 2013
WEATHER CONDITIONS BREAKOUT
WIND DIRECTION BREAKOUT
WEATHER BY HOUR - 7 JANUARY, 2013
[ °F ]   °C
Local TimeTemperatureDewpointHumidityBarometerVisibilityWind DirectionWind SpeedGust SpeedPrecipitationEventsConditions
1:53 AM-4.4 °C-6.7 °C84 %1021.3 hPa16.1 kmCalmClear
2:20 AM-8 °C-10 °C86 %1021 hPa3.2 kmCalmClear
2:23 AM-10 °C-12 °C86 %1021.3 hPa1.3 kmSouth (190°)5.6 km/hClear
2:33 AM-8 °C-10 °C86 %1021.3 hPa3.2 kmSouth (180°)5.6 km/hClear
2:38 AM-7 °C-9 °C86 %1021.3 hPa8 kmCalmClear
2:53 AM-7.8 °C-10.6 °C81 %1023.7 hPa6.4 kmSouth (190°)5.6 km/hHaze
3:04 AM-8 °C-11 °C79 %1021.3 hPa16.1 kmSSW (200°)7.4 km/hClear
3:53 AM-9.4 °C-11.7 °C84 %1024.4 hPa16.1 kmCalmClear
4:53 AM-10 °C-12.2 °C84 %1024.4 hPa16.1 kmSSW (210°)5.6 km/hClear
5:53 AM-11.1 °C-13.9 °C80 %1025.1 hPa16.1 kmSSW (200°)7.4 km/hClear
6:53 AM-10.6 °C-13.3 °C81 %1025.4 hPa16.1 kmCalmClear
7:53 AM-9.4 °C-12.2 °C80 %1026.1 hPa16.1 kmSouth (190°)9.3 km/hClear
8:53 AM-6.7 °C-8.3 °C89 %1026.1 hPa16.1 kmCalmOvercast
9:53 AM-4.4 °C-6.7 °C84 %1025.7 hPa16.1 kmSouth (170°)7.4 km/hMostly Cloudy
10:53 AM-0.6 °C-5.6 °C69 %1024.4 hPa16.1 kmCalmClear
11:53 AM2.8 °C-5.6 °C54 %1024.4 hPa16.1 kmNE (40°)9.3 km/hClear
12:53 PM2.8 °C-5.6 °C54 %1023.7 hPa16.1 kmSouth (190°)5.6 km/hClear
1:53 PM5.6 °C-3.3 °C53 %1022.7 hPa16.1 kmCalmClear
4:53 PM1.1 °C-1.7 °C82 %1026.1 hPa16.1 kmCalmClear
5:53 PM-1.1 °C-2.8 °C88 %1027.4 hPa12.9 kmSSW (210°)5.6 km/hClear
6:05 PM-3 °C-4 °C93 %1023.7 hPa4 kmSSW (200°)7.4 km/hClear
6:14 PM-1 °C-3 °C86 %1023.7 hPa9.7 kmCalmClear
6:29 PM-2 °C-4 °C86 %1024 hPa1.6 kmCalmMist
6:34 PM-1 °C-3 °C86 %1024 hPa3.2 kmSouth (190°)5.6 km/hPartly Cloudy
6:43 PM-1 °C-3 °C86 %1024 hPa6.4 kmCalmClear
6:50 PM-1 °C-3 °C86 %1024 hPa16.1 kmCalmClear
6:53 PM-1.1 °C-3.3 °C85 %1027.1 hPa16.1 kmCalmClear
7:01 PM-2 °C-4 °C86 %1024 hPa4 kmCalmClear
7:09 PM-2 °C-4 °C86 %1024 hPa2.9 kmCalmPartly Cloudy
7:25 PM-2 °C-4 °C86 %1024 hPa1.6 kmCalmMist
7:27 PM-2 °C-4 °C86 %1024.4 hPa3.2 kmCalmPartly Cloudy
7:29 PM-2 °C-4 °C86 %1024.4 hPa8 kmCalmPartly Cloudy
7:39 PM-2 °C-4 °C86 %1024.4 hPa4 kmCalmPartly Cloudy
7:41 PM-3 °C-4 °C93 %1024.4 hPa1.6 kmCalmMist
7:49 PM-2 °C-4 °C86 %1024.4 hPa0.8 kmSSW (200°)7.4 km/hFogLight Freezing Fog
7:53 PM-2.8 °C-4.4 °C89 %1028.1 hPa1.3 kmCalmMist
8:06 PM-3 °C-6 °C80 %1024.7 hPa1.9 kmCalmPartly Cloudy
8:12 PM-3 °C-5 °C86 %1024.7 hPa4.8 kmCalmPartly Cloudy
8:26 PM-4 °C-6 °C86 %1025.1 hPa2.4 kmCalmPartly Cloudy
8:29 PM-3 °C-5 °C86 %1025.1 hPa1.3 kmCalmScattered Clouds
8:38 PM-2 °C-4 °C86 %1024.7 hPa4 kmCalmPartly Cloudy
8:40 PM-2 °C-4 °C86 %1024.7 hPa9.7 kmCalmPartly Cloudy
8:49 PM-4 °C-6 °C86 %1024.7 hPa0.8 kmCalmFogLight Freezing Fog
8:53 PM-3.9 °C-5.6 °C88 %1027.8 hPa0.8 kmCalmFogLight Freezing Fog
8:59 PM-3 °C-6 °C80 %1024.7 hPa4.8 kmSSW (200°)5.6 km/hScattered Clouds
9:10 PM-3 °C-5 °C86 %1024.4 hPa1.3 kmCalmMostly Cloudy
9:23 PM-3 °C-5 °C86 %1024 hPa0.8 kmSSW (200°)7.4 km/hFogLight Freezing Fog
9:38 PM-3 °C-5 °C86 %1024 hPa1.9 kmCalmScattered Clouds
9:53 PM-2.2 °C-4.4 °C85 %1026.1 hPa6.4 kmCalmPartly Cloudy
10:03 PM-4 °C-6 °C86 %1024 hPa2.9 kmCalmPartly Cloudy
10:07 PM-4 °C-6 °C86 %1024 hPa1.3 kmVariable5.6 km/hMist
10:18 PM-3 °C-6 °C80 %1024 hPa4.8 kmESE (120°)7.4 km/hPartly Cloudy
10:44 PM-4 °C-6 °C86 %1024 hPa3.2 kmSSW (210°)5.6 km/hScattered Clouds
10:51 PM-3 °C-6 °C80 %1024 hPa8 kmVariable5.6 km/hScattered Clouds
10:53 PM-3.3 °C-5.6 °C84 %1025.1 hPa8 kmCalmScattered Clouds
11:09 PM-4 °C-7 °C80 %1024 hPa4 kmCalmPartly Cloudy
11:12 PM-5 °C-7 °C86 %1024 hPa1.6 kmCalmMist
11:17 PM-5 °C-7 °C86 %1024.4 hPa0.8 kmCalmFogLight Freezing Fog
11:30 PM-4 °C-7 °C80 %1024.4 hPa1.9 kmCalmClear
11:35 PM-3 °C-6 °C80 %1024.7 hPa4.8 kmCalmHaze
11:41 PM-4 °C-6 °C86 %1024.7 hPa8 kmCalmPartly Cloudy
11:53 PM-5.6 °C-8.3 °C82 %1025.7 hPa4.8 kmCalmHaze
Hourly data recorded from KTVL, located 0 kilometers away from South Lake Tahoe, California







STORIES FROM OUR PARTNERS